Torna al catalogo

STARLINK-32705

AttivoComunicazioniVLEO
NORAD 62479·PAYLOAD·🇺🇸 United States

Lanciato Dec 31, 2024 da Cape Canaveral Space Force Station

Loading…

Prossimi Passaggi (prossime 24 ore)

TLE

AggiornatoSource: CelesTrak SupGP

Epoca: Sep 15, 2026, 03:00 UTC

1 62479C 24254T   26258.12548611  .00007012  00000+0  25388-3 0  2582
2 62479  43.0045  18.9575 0001891 270.4109  41.3053 15.27585038    14

Traccia STARLINK-32705 in tempo reale con AllMySat

Download on the App Store